Regional Weather Roundup
Issued by NWS Jackson, KY

Home | Current Version | Previous Version | Graphics & Text | Print | Product List | Glossary On
Versions: 1 2 3 4 5 6 7 8 9 10 11 12 13 14 15 16 17 18 19 20 21 22 23 24 25 26 27 28
000
ASUS43 KJKL 161110
RWRJKL

EAST KENTUCKY HOURLY WEATHER ROUNDUP
NATIONAL WEATHER SERVICE JACKSON KY
600 AM EST SAT DEC 16 2017

NOTE: "FAIR" INDICATES FEW OR NO CLOUDS BELOW 12,000 FEET WITH
NO SIGNIFICANT WEATHER AND/OR OBSTRUCTIONS TO VISIBILITY.

* THESE REPORTS ARE NOT UNDER NWS QUALITY CONTROL AND MAY NOT
  REPORT WEATHER SUCH AS PRECIPITATION AND FOG.

KYZ079-080-083-085-087-088-110-112-115-119-120-161200
...EASTERN KENTUCKY...

CITY           SKY/WX    TMP DP  RH WIND       PRES   REMARKS
JACKSON        CLOUDY    30  21  69 SW3       30.16R
LONDON         PTCLDY    29  21  72 SW5       30.18R WCI  24
SOMERSET*      CLEAR     28  21  74 S6        30.22R WCI  22
MONTICELLO*    CLEAR     23  21  92 NE3       30.22
WILLIAMSBURG*  SUNNY     27  23  86 SE3       30.20R
MIDDLESBORO*   CLOUDY    22  21  95 CALM      30.23R
HARLAN APT*    MOSUNNY   25  21  86 CALM      30.19R
PIKE CO APT*     N/A     31  21  66 CALM      30.15R
BIG SANDY APT* MOSUNNY   32  22  66 SW5       30.16R WCI  27
MOREHEAD APT*  CLOUDY    30  21  69 S7        30.13F WCI  23
$$

KYZ035-036-041-042-044-050-067-078-099-161200
...CENTRAL KENTUCKY...

CITY           SKY/WX    TMP DP  RH WIND       PRES   REMARKS
MT STERLING*   CLEAR     32  25  74 SW9       30.14S WCI  24
FLEMING/MASON* CLEAR     31  23  72 SW12      30.12R WCI  22
DANVILLE*      CLEAR     30  23  74 SW8       30.16S WCI  23
LEXINGTON      CLEAR     32  23  69 S12       30.12S WCI  23
FRANKFORT      CLEAR     33  22  63 SW10      30.11S WCI  25
LOUISVILLE     CLEAR     36  25  64 SW10G21   30.11F WCI  28
LEBANON*         N/A     32  23  69 S12       30.15S WCI  23
GLASGOW*       CLEAR     30  24  78 CALM      30.18R
BOWLING GREEN  CLEAR     31  25  78 SW3       30.18S
$$

KYZ091>093-OHZ055-061-077-WVZ005-015-034-035-042-161200
...SOUTHERN OHIO/WEST VIRGINIA...

CITY           SKY/WX    TMP DP  RH WIND       PRES   REMARKS
COVINGTON      MOCLDY    34  26  72 SW10      30.07R WCI  26
COLUMBUS       CLOUDY    34  24  67 SW13      30.04S WCI  25
DAYTON         CLOUDY    32  25  75 SW13      30.03S WCI  22
WILMINGTON     CLOUDY    32  25  75 SW12      30.04S WCI  23
HUNTINGTON     CLOUDY    32  20  61 S7        30.14R WCI  26
CHARLESTON     CLOUDY    33  21  61 SW8       30.15R WCI  26
PINEVILLE*       N/A     22  20  91 MISG      30.19S
BECKLEY        CLEAR     25  18  74 W7        30.10R WCI  17
BLUEFIELD      CLEAR     23  16  74 W8        30.09R WCI  14
LOGAN CO APT*    N/A     28  21  74 CALM      30.13
$$

VAZ002-007-008-TNZ017-027-036-066-071-161200
...SOUTHWEST VIRGINIA/EAST TENNESSEE...

CITY           SKY/WX    TMP DP  RH WIND       PRES   REMARKS
WISE*          PTCLDY    25  21  86 SW6       30.12F WCI  18
JONESVILLE*      N/A     19  18  93 CALM      30.24R
ABINGDON*      CLOUDY    26  23  89 CALM      30.17S
BRISTOL        CLOUDY    22  21  96 CALM      30.21R
MORRISTOWN*    CLOUDY    23  21  93 CALM      30.21S
SEVIERVILLE*   CLOUDY    21  19  93 CALM      30.23S
KNOXVILLE      CLOUDY    22  22 100 SW5       30.24R WCI  16
LAFOLLETTE*    MOSUNNY   21  19  93 CALM      30.26R
OAK RIDGE      CLOUDY    24  21  88 VRB3      30.26R
CROSSVILLE     CLOUDY    22  19  89 CALM      30.19R
NASHVILLE      CLOUDY    29  23  78 S5        30.21F WCI  24
$$

...KEY TO REMARKS...
VSB - VISIBILITY IN MILES
WCI - WIND CHILL INDEX
HX  - HEAT INDEX

$$




USA.gov is the U.S. government's official web portal to all federal, state and local government web resources and services.